Location: Canet
(43.3261°N, 5.3723°E)
Time: 18:56:22
(UTC+00:00)

Cosmos 1703 - Pass Details

Date: 24 January 2021
Orbit: 524 x 538 km, 82.5° (Epoch: 08 March)

Event Time Altitude Azimuth Distance (km) Brightness Sun altitude
Rises 18:20:16 0° 198° (SSW) 2,648 7.2 -18.2°
Reaches altitude 10° 18:22:26 10° 203° (SSW) 1,763 6.3 -18.6°
Maximum altitude 18:26:14 54° 281° (W) 648 4.0 -19.2°
Drops below altitude 10° 18:30:03 10° 359° (N) 1,775 5.8 -19.9°
Enters shadow 18:31:23 - 3° (N) 2,316 6.4 -20.2°
